Weather History for George, South Africa

Change the Weather History Date:

Tuesday, April 9, 2013

  Actual Average Record
Temperature  
Mean Temperature 55 °F -  
Max Temperature 62 °F 69 °F 85 °F (2014)
Min Temperature 48 °F 52 °F 44 °F (1998)
Degree Days  
Heating Degree Days 10    
Growing Degree Days 5 (Base 50)    
Moisture  
Dew Point 46 °F    
Average Humidity 68    
Maximum Humidity 87    
Minimum Humidity 46    
Precipitation  
Precipitation 0.08 in - - ()
Sea Level Pressure  
Sea Level Pressure 30.08 in    
Wind  
Wind Speed 10 mph ()    
Max Wind Speed 18 mph    
Max Gust Speed -    
Visibility 7.6 miles    
Events Rain    
Averages and records for this station are not official NWS values.
T = Trace of Precipitation, MM = Missing Value Source: Averaged Metar Reports

Daily Weather History Graph

Daily Weather History Graph

Search for Another Location

Airport:

Trip Planner

Search our weather history database for the weather conditions in past years. The results will help you decide how hot, cold, wet, or windy it might be!

Date:

Astronomy

Apr. 09, 2013 Rise Set
Actual Time 6:48 AM SAST 6:14 PM SAST
Civil Twilight 6:23 AM SAST 6:39 PM SAST
Nautical Twilight 5:54 AM SAST 7:08 PM SAST
Astronomical Twilight 5:25 AM SAST 7:37 PM SAST
Moon 5:46 AM SAST (4/9) 5:33 PM SAST (4/9)
Length of Visible Light 12h 16m
Length of Day
11h 26m
Waning Crescent, 1% of the Moon is Illuminated
Apr 9
Waning Crescent
Apr 10
New
Apr 18
First Quarter
Apr 25
Full
May 2
Last Quarter

Hourly Weather History & Observations

Time (SAST) Temp. Dew Point Humidity Pressure Visibility Wind Dir Wind Speed Gust Speed Precip Events Conditions
12:00 AM 59.0 °F 50.0 °F 72% 29.95 in 6.2 mi WNW 9.2 mph - N/A   Mostly Cloudy
1:00 AM 59.0 °F 48.2 °F 67% 29.95 in 6.2 mi WNW 6.9 mph - N/A   Overcast
2:00 AM 58 °F 47 °F 58% 29.94 in 12 mi WNW 9.2 mph - -  
2:00 AM 59.0 °F 46.4 °F 63% 29.95 in 6.2 mi WNW 9.2 mph - N/A   Overcast
3:00 AM 57.2 °F 46.4 °F 67% 29.95 in 6.2 mi WNW 6.9 mph - N/A   Mostly Cloudy
4:00 AM 55.4 °F 44.6 °F 67% 29.92 in - WNW 6.9 mph - N/A   Clear
5:00 AM 55 °F 46 °F 62% 29.94 in 12 mi WNW 8.1 mph - -   Scattered Clouds
5:00 AM 55.4 °F 46.4 °F 72% 29.92 in 6.2 mi WNW 8.1 mph - N/A   Partly Cloudy
6:00 AM 53.6 °F 44.6 °F 72% 29.95 in 6.2 mi SW 10.4 mph - N/A   Scattered Clouds
7:00 AM 53.6 °F 44.6 °F 72% 29.98 in 6.2 mi West 10.4 mph - N/A   Scattered Clouds
8:00 AM 54 °F 45 °F 63% 30.03 in 12 mi WNW 9.2 mph - -   Scattered Clouds
8:00 AM 53.6 °F 44.6 °F 72% 30.01 in 6.2 mi WNW 9.2 mph - N/A   Partly Cloudy
9:00 AM 57.2 °F 46.4 °F 67% 30.04 in 6.2 mi West 16.1 mph - N/A   Scattered Clouds
10:00 AM 57.2 °F 44.6 °F 63% 30.06 in 6.2 mi West 16.1 mph - N/A   Mostly Cloudy
11:00 AM 59 °F 45 °F 49% 30.09 in 12 mi West 15.0 mph - -   Mostly Cloudy
11:00 AM 59.0 °F 44.6 °F 59% 30.06 in 6.2 mi West 15.0 mph - N/A   Mostly Cloudy
12:00 PM 57.2 °F 44.6 °F 63% 30.09 in 6.2 mi SW 18.4 mph - N/A   Mostly Cloudy
1:00 PM 60.8 °F 44.6 °F 55% 30.09 in 6.2 mi WSW 16.1 mph - N/A   Mostly Cloudy
2:00 PM 60 °F 45 °F 46% 30.08 in 12 mi West 12.7 mph - -   Mostly Cloudy
2:00 PM 60.8 °F 44.6 °F 55% 30.06 in 6.2 mi WNW 13.8 mph - N/A   Mostly Cloudy
3:00 PM 57.2 °F 48.2 °F 72% 30.09 in 6.2 mi WNW 16.1 mph - N/A   Mostly Cloudy
4:00 PM 55.4 °F 46.4 °F 72% 30.12 in 6.2 mi SW 17.3 mph - N/A Rain Light Rain
5:00 PM 56 °F 43 °F 51% 30.19 in 12 mi West 17.3 mph - - Rain Light Rain
5:00 PM 55.4 °F 44.6 °F 67% 30.18 in 6.2 mi WSW 18.4 mph - N/A Rain Light Rain
6:00 PM 51.8 °F 44.6 °F 76% 30.18 in 6.2 mi NW 9.2 mph - N/A   Scattered Clouds
7:00 PM 51.8 °F 44.6 °F 76% 30.21 in 6.2 mi NW 5.8 mph - N/A   Scattered Clouds
8:00 PM 50 °F 46 °F 81% 30.28 in 12 mi WNW 11.5 mph - -   Partly Cloudy
8:00 PM 50.0 °F 46.4 °F 87% 30.27 in 6.2 mi WNW 12.7 mph - N/A Rain Light Rain
9:00 PM 50.0 °F 46.4 °F 87% 30.27 in 6.2 mi WNW 8.1 mph - N/A   Partly Cloudy
10:00 PM 48.2 °F 44.6 °F 87% 30.30 in 6.2 mi WNW 8.1 mph - N/A   Scattered Clouds
11:00 PM 48.2 °F 44.6 °F 87% 30.33 in 6.2 mi WNW 9.2 mph - N/A   Mostly Cloudy